Time,TemperatureF,DewpointF,PressureIn,WindDirection,WindDirectionDegrees,WindSpeedMPH,WindSpeedGustMPH,Humidity,HourlyPrecipIn,Conditions,Clouds,dailyrainin,SoftwareType,DateUTC
2013-01-04 00:05:00,69.1,28.6,30.10,North,-999,0.0,0.0,22,0.00,,,-99.99,WeatherLink 5.5,2013-01-04 05:05:00,
2013-01-04 00:10:00,68.9,28.5,30.10,North,-999,0.0,0.0,22,0.00,,,-99.99,WeatherLink 5.5,2013-01-04 05:10:00,
2013-01-04 00:20:00,68.6,28.2,30.10,North,-999,0.0,0.0,22,0.00,,,-99.99,WeatherLink 5.5,2013-01-04 05:20:00,
2013-01-04 00:30:00,68.2,27.9,30.10,North,-999,0.0,0.0,22,0.00,,,-99.99,WeatherLink 5.5,2013-01-04 05:30:00,
2013-01-04 00:40:00,67.8,27.5,30.09,North,-999,0.0,0.0,22,0.00,,,-99.99,WeatherLink 5.5,2013-01-04 05:40:00,
2013-01-04 00:50:00,67.5,27.3,30.09,North,-999,0.0,0.0,22,0.00,,,-99.99,WeatherLink 5.5,2013-01-04 05:50:00,
2013-01-04 00:55:00,67.3,27.1,30.09,North,-999,0.0,0.0,22,0.00,,,-99.99,WeatherLink 5.5,2013-01-04 05:55:00,
2013-01-04 01:05:00,66.9,26.8,30.09,North,-999,0.0,0.0,22,0.00,,,-99.99,WeatherLink 5.5,2013-01-04 06:05:00,
2013-01-04 01:15:00,66.7,26.6,30.09,North,-999,0.0,0.0,22,0.00,,,-99.99,WeatherLink 5.5,2013-01-04 06:15:00,
2013-01-04 01:20:00,66.8,26.7,30.09,North,-999,0.0,0.0,22,0.00,,,-99.99,WeatherLink 5.5,2013-01-04 06:20:00,
2013-01-04 01:30:00,66.7,26.6,30.09,North,-999,0.0,0.0,22,0.00,,,-99.99,WeatherLink 5.5,2013-01-04 06:30:00,
2013-01-04 01:35:00,66.5,26.4,30.09,North,-999,0.0,0.0,22,0.00,,,-99.99,WeatherLink 5.5,2013-01-04 06:35:00,
2013-01-04 01:45:00,66.2,26.2,30.09,North,-999,0.0,0.0,22,0.00,,,-99.99,WeatherLink 5.5,2013-01-04 06:45:00,
2013-01-04 01:50:00,66.2,26.2,30.09,North,-999,0.0,0.0,22,0.00,,,-99.99,WeatherLink 5.5,2013-01-04 06:50:00,
2013-01-04 02:00:00,65.9,25.9,30.09,North,-999,0.0,0.0,22,0.00,,,-99.99,WeatherLink 5.5,2013-01-04 07:00:00,
2013-01-04 02:05:00,65.8,25.9,30.09,North,-999,0.0,0.0,22,0.00,,,-99.99,WeatherLink 5.5,2013-01-04 07:05:00,
2013-01-04 02:15:00,65.7,25.8,30.09,North,-999,0.0,0.0,22,0.00,,,-99.99,WeatherLink 5.5,2013-01-04 07:15:00,
2013-01-04 02:20:00,65.7,25.8,30.09,North,-999,0.0,0.0,22,0.00,,,-99.99,WeatherLink 5.5,2013-01-04 07:20:00,
2013-01-04 02:30:00,65.7,25.8,30.09,North,-999,0.0,0.0,22,0.00,,,-99.99,WeatherLink 5.5,2013-01-04 07:30:00,
2013-01-04 02:35:00,65.8,25.9,30.09,North,-999,0.0,0.0,22,0.00,,,-99.99,WeatherLink 5.5,2013-01-04 07:35:00,
2013-01-04 02:40:00,65.8,25.9,30.09,North,-999,0.0,0.0,22,0.00,,,-99.99,WeatherLink 5.5,2013-01-04 07:40:00,
2013-01-04 02:45:00,65.6,25.7,30.09,North,-999,0.0,0.0,22,0.00,,,-99.99,WeatherLink 5.5,2013-01-04 07:45:00,
2013-01-04 02:50:00,65.6,25.7,30.09,North,-999,0.0,0.0,22,0.00,,,-99.99,WeatherLink 5.5,2013-01-04 07:50:00,
2013-01-04 02:55:00,65.6,25.7,30.09,North,-999,0.0,0.0,22,0.00,,,-99.99,WeatherLink 5.5,2013-01-04 07:55:00,
2013-01-04 03:00:00,65.5,25.6,30.09,North,-999,0.0,0.0,22,0.00,,,-99.99,WeatherLink 5.5,2013-01-04 08:00:00,
2013-01-04 03:05:00,65.5,25.6,30.09,North,-999,0.0,0.0,22,0.00,,,-99.99,WeatherLink 5.5,2013-01-04 08:05:00,
2013-01-04 03:15:00,65.4,25.5,30.09,North,-999,0.0,0.0,22,0.00,,,-99.99,WeatherLink 5.5,2013-01-04 08:15:00,
2013-01-04 03:25:00,65.4,25.5,30.09,North,-999,0.0,0.0,22,0.00,,,-99.99,WeatherLink 5.5,2013-01-04 08:25:00,
2013-01-04 03:35:00,65.3,26.5,30.09,North,-999,0.0,0.0,23,0.00,,,-99.99,WeatherLink 5.5,2013-01-04 08:35:00,
2013-01-04 03:40:00,65.5,26.7,30.09,North,-999,0.0,0.0,23,0.00,,,-99.99,WeatherLink 5.5,2013-01-04 08:40:00,
2013-01-04 03:50:00,65.3,26.5,30.09,North,-999,0.0,0.0,23,0.00,,,-99.99,WeatherLink 5.5,2013-01-04 08:50:00,
2013-01-04 04:00:00,65.3,26.5,30.10,North,-999,0.0,0.0,23,0.00,,,-99.99,WeatherLink 5.5,2013-01-04 09:00:00,
2013-01-04 04:10:00,65.9,27.0,30.09,North,-999,0.0,0.0,23,0.00,,,-99.99,WeatherLink 5.5,2013-01-04 09:10:00,
2013-01-04 04:20:00,65.9,27.0,30.09,North,-999,0.0,0.0,23,0.00,,,-99.99,WeatherLink 5.5,2013-01-04 09:20:00,
2013-01-04 04:30:00,66.2,27.3,30.09,North,-999,0.0,0.0,23,0.00,,,-99.99,WeatherLink 5.5,2013-01-04 09:30:00,
2013-01-04 04:35:00,66.3,27.4,30.09,North,-999,0.0,0.0,23,0.00,,,-99.99,WeatherLink 5.5,2013-01-04 09:35:00,
2013-01-04 04:45:00,66.1,27.2,30.09,North,-999,0.0,0.0,23,0.00,,,-99.99,WeatherLink 5.5,2013-01-04 09:45:00,
2013-01-04 04:55:00,65.6,26.8,30.09,North,-999,0.0,0.0,23,0.00,,,-99.99,WeatherLink 5.5,2013-01-04 09:55:00,
2013-01-04 05:05:00,65.4,26.6,30.10,North,-999,0.0,0.0,23,0.00,,,-99.99,WeatherLink 5.5,2013-01-04 10:05:00,
2013-01-04 05:10:00,65.3,26.5,30.10,North,-999,0.0,0.0,23,0.00,,,-99.99,WeatherLink 5.5,2013-01-04 10:10:00,
2013-01-04 05:20:00,65.2,26.4,30.10,North,-999,0.0,0.0,23,0.00,,,-99.99,WeatherLink 5.5,2013-01-04 10:20:00,
2013-01-04 05:25:00,107.9,62.1,30.10,North,-999,0.0,0.0,23,0.00,,,-99.99,WeatherLink 5.5,2013-01-04 10:25:00,
2013-01-04 05:35:00,65.0,26.3,30.10,North,-999,0.0,0.0,23,0.00,,,-99.99,WeatherLink 5.5,2013-01-04 10:35:00,
2013-01-04 05:41:00,65.0,26.3,30.10,North,-999,0.0,0.0,23,0.00,,,-99.99,WeatherLink 5.5,2013-01-04 10:41:00,
2013-01-04 05:50:00,64.8,26.1,30.10,North,-999,0.0,0.0,23,0.00,,,-99.99,WeatherLink 5.5,2013-01-04 10:50:00,
2013-01-04 06:00:00,64.7,26.0,30.11,North,-999,0.0,0.0,23,0.00,,,-99.99,WeatherLink 5.5,2013-01-04 11:00:00,
2013-01-04 06:10:00,64.6,25.9,30.11,North,-999,0.0,0.0,23,0.00,,,-99.99,WeatherLink 5.5,2013-01-04 11:10:00,
2013-01-04 06:20:00,64.6,27.0,30.11,North,-999,0.0,0.0,24,0.00,,,-99.99,WeatherLink 5.5,2013-01-04 11:20:00,
2013-01-04 06:30:00,64.8,27.1,30.11,North,-999,0.0,0.0,24,0.00,,,-99.99,WeatherLink 5.5,2013-01-04 11:30:00,
2013-01-04 06:35:00,65.6,27.8,30.11,North,-999,0.0,0.0,24,0.00,,,-99.99,WeatherLink 5.5,2013-01-04 11:35:00,
2013-01-04 06:40:00,65.8,28.0,30.12,North,-999,0.0,0.0,24,0.00,,,-99.99,WeatherLink 5.5,2013-01-04 11:40:00,
2013-01-04 06:50:00,65.9,28.1,30.12,North,-999,0.0,0.0,24,0.00,,,-99.99,WeatherLink 5.5,2013-01-04 11:50:00,
2013-01-04 07:00:00,66.1,28.2,30.12,North,-999,0.0,0.0,24,0.00,,,-99.99,WeatherLink 5.5,2013-01-04 12:00:00,
2013-01-04 07:10:00,66.0,28.1,30.12,North,-999,0.0,0.0,24,0.00,,,-99.99,WeatherLink 5.5,2013-01-04 12:10:00,
2013-01-04 07:20:00,65.9,28.1,30.13,North,-999,0.0,0.0,24,0.00,,,-99.99,WeatherLink 5.5,2013-01-04 12:20:00,
2013-01-04 07:25:00,65.8,28.0,30.13,North,-999,0.0,0.0,24,0.00,,,-99.99,WeatherLink 5.5,2013-01-04 12:25:00,
2013-01-04 07:30:00,65.9,29.1,30.13,SE,135,0.0,3.0,25,0.00,,,-99.99,WeatherLink 5.5,2013-01-04 12:30:00,
2013-01-04 07:35:00,66.2,29.3,30.14,SE,135,0.0,3.0,25,0.00,,,-99.99,WeatherLink 5.5,2013-01-04 12:35:00,
2013-01-04 07:45:00,66.5,29.6,30.14,North,-999,0.0,0.0,25,0.00,,,-99.99,WeatherLink 5.5,2013-01-04 12:45:00,
2013-01-04 07:50:00,66.6,29.6,30.14,SE,135,0.0,2.0,25,0.00,,,-99.99,WeatherLink 5.5,2013-01-04 12:50:00,
2013-01-04 08:00:00,66.9,29.9,30.15,SE,135,1.0,3.0,25,0.00,,,-99.99,WeatherLink 5.5,2013-01-04 13:00:00,
2013-01-04 08:05:00,67.0,30.0,30.15,SE,135,1.0,5.0,25,0.00,,,-99.99,WeatherLink 5.5,2013-01-04 13:05:00,
2013-01-04 08:15:00,67.6,30.5,30.16,ESE,112,0.0,5.0,25,0.00,,,-99.99,WeatherLink 5.5,2013-01-04 13:15:00,
2013-01-04 08:20:00,67.9,30.8,30.16,ESE,112,1.0,5.0,25,0.00,,,-99.99,WeatherLink 5.5,2013-01-04 13:20:00,
2013-01-04 08:30:00,68.4,31.2,30.16,ESE,112,0.0,3.0,25,0.00,,,-99.99,WeatherLink 5.5,2013-01-04 13:30:00,
2013-01-04 08:40:00,68.9,31.6,30.16,ESE,112,0.0,1.0,25,0.00,,,-99.99,WeatherLink 5.5,2013-01-04 13:40:00,
2013-01-04 08:45:00,69.2,31.9,30.17,ESE,112,0.0,5.0,25,0.00,,,-99.99,WeatherLink 5.5,2013-01-04 13:45:00,
2013-01-04 08:55:00,69.6,32.2,30.17,East,90,1.0,4.0,25,0.00,,,-99.99,WeatherLink 5.5,2013-01-04 13:55:00,
2013-01-04 09:05:00,69.9,32.5,30.17,East,90,0.0,4.0,25,0.00,,,-99.99,WeatherLink 5.5,2013-01-04 14:05:00,
2013-01-04 09:15:00,70.4,47.4,30.18,East,90,0.0,1.0,44,0.00,,,-99.99,WeatherLink 5.5,2013-01-04 14:15:00,
2013-01-04 09:25:00,71.0,-99.9,30.18,North,-999,0.0,1.0,-999,0.00,,,-99.99,WeatherLink 5.5,2013-01-04 14:25:00,
2013-01-04 09:35:00,71.6,-99.9,30.18,East,90,0.0,4.0,-999,0.00,,,-99.99,WeatherLink 5.5,2013-01-04 14:35:00,
2013-01-04 09:40:00,72.1,-99.9,30.18,ENE,67,0.0,1.0,-999,0.00,,,-99.99,WeatherLink 5.5,2013-01-04 14:40:00,
2013-01-04 09:45:00,72.4,-99.9,30.18,ENE,67,0.0,1.0,-999,0.00,,,-99.99,WeatherLink 5.5,2013-01-04 14:45:00,
2013-01-04 09:50:00,72.8,33.9,30.18,NE,45,1.0,5.0,24,0.00,,,-99.99,WeatherLink 5.5,2013-01-04 14:50:00,
2013-01-04 09:55:00,72.9,65.3,30.18,NNE,22,1.0,6.0,77,0.00,,,-99.99,WeatherLink 5.5,2013-01-04 14:55:00,
2013-01-04 10:00:00,73.1,-99.9,30.18,NNE,22,1.0,5.0,-999,0.00,,,-99.99,WeatherLink 5.5,2013-01-04 15:00:00,
2013-01-04 10:05:00,73.5,-99.9,30.18,NNE,22,1.0,5.0,-999,0.00,,,-99.99,WeatherLink 5.5,2013-01-04 15:05:00,
2013-01-04 10:10:00,73.6,66.3,30.18,North,0,1.0,5.0,78,0.00,,,-99.99,WeatherLink 5.5,2013-01-04 15:10:00,
2013-01-04 10:15:00,73.7,33.6,30.18,North,0,0.0,5.0,23,0.00,,,-99.99,WeatherLink 5.5,2013-01-04 15:15:00,
2013-01-04 10:20:00,73.8,33.7,30.18,North,0,1.0,4.0,23,0.00,,,-99.99,WeatherLink 5.5,2013-01-04 15:20:00,
2013-01-04 10:25:00,73.5,33.4,30.18,North,0,1.0,5.0,23,0.00,,,-99.99,WeatherLink 5.5,2013-01-04 15:25:00,
2013-01-04 10:30:00,72.7,32.7,30.18,North,0,1.0,8.0,23,0.00,,,-99.99,WeatherLink 5.5,2013-01-04 15:30:00,
2013-01-04 10:35:00,67.6,28.5,30.18,NW,315,2.0,8.0,23,0.00,,,-99.99,WeatherLink 5.5,2013-01-04 15:35:00,
2013-01-04 10:40:00,71.5,31.7,30.18,NW,315,1.0,5.0,23,0.00,,,-99.99,WeatherLink 5.5,2013-01-04 15:40:00,
2013-01-04 10:45:00,75.1,34.8,30.18,NW,315,0.0,4.0,23,0.00,,,-99.99,WeatherLink 5.5,2013-01-04 15:45:00,
2013-01-04 10:50:00,75.4,35.0,30.18,NW,315,1.0,4.0,23,0.00,,,-99.99,WeatherLink 5.5,2013-01-04 15:50:00,
2013-01-04 10:55:00,75.8,35.3,30.18,NW,315,2.0,5.0,23,0.00,,,-99.99,WeatherLink 5.5,2013-01-04 15:55:00,
2013-01-04 11:00:00,76.3,35.8,30.18,NW,315,1.0,6.0,23,0.00,,,-99.99,WeatherLink 5.5,2013-01-04 16:00:00,
2013-01-04 11:05:00,76.4,34.7,30.17,NW,315,0.0,5.0,22,0.00,,,-99.99,WeatherLink 5.5,2013-01-04 16:05:00,
2013-01-04 11:10:00,76.6,68.8,30.17,WNW,292,1.0,7.0,77,0.00,,,-99.99,WeatherLink 5.5,2013-01-04 16:10:00,
2013-01-04 11:15:00,76.6,-99.9,30.17,WNW,292,1.0,5.0,-999,0.00,,,-99.99,WeatherLink 5.5,2013-01-04 16:15:00,
2013-01-04 11:20:00,76.7,35.0,30.17,WNW,292,0.0,2.0,22,0.00,,,-99.99,WeatherLink 5.5,2013-01-04 16:20:00,
2013-01-04 11:25:00,77.1,-99.9,30.17,WNW,292,1.0,9.0,-999,0.00,,,-99.99,WeatherLink 5.5,2013-01-04 16:25:00,
2013-01-04 11:30:00,77.0,-99.9,30.17,WNW,292,1.0,6.0,-999,0.00,,,-99.99,WeatherLink 5.5,2013-01-04 16:30:00,
2013-01-04 11:35:00,76.7,-99.9,30.17,WNW,292,2.0,6.0,-999,0.00,,,-99.99,WeatherLink 5.5,2013-01-04 16:35:00,
2013-01-04 11:40:00,76.3,-99.9,30.17,WNW,292,1.0,6.0,-999,0.00,,,-99.99,WeatherLink 5.5,2013-01-04 16:40:00,
2013-01-04 11:45:00,76.1,-99.9,30.17,North,-999,0.0,0.0,-999,0.00,,,-99.99,WeatherLink 5.5,2013-01-04 16:45:00,
2013-01-04 11:50:00,73.2,-99.9,30.16,WNW,292,0.0,1.0,-999,0.00,,,-99.99,WeatherLink 5.5,2013-01-04 16:50:00,
2013-01-04 11:55:00,67.2,-99.9,30.16,WNW,292,1.0,6.0,-999,0.00,,,-99.99,WeatherLink 5.5,2013-01-04 16:55:00,
2013-01-04 12:00:00,74.5,-99.9,30.16,NW,315,2.0,7.0,-999,0.00,,,-99.99,WeatherLink 5.5,2013-01-04 17:00:00,
2013-01-04 12:05:00,74.9,-99.9,30.16,NW,315,1.0,7.0,-999,0.00,,,-99.99,WeatherLink 5.5,2013-01-04 17:05:00,
2013-01-04 12:10:00,74.7,-99.9,30.16,WNW,292,1.0,5.0,-999,0.00,,,-99.99,WeatherLink 5.5,2013-01-04 17:10:00,
2013-01-04 12:15:00,74.4,-99.9,30.15,WNW,292,0.0,1.0,-999,0.00,,,-99.99,WeatherLink 5.5,2013-01-04 17:15:00,
2013-01-04 12:20:00,73.2,-99.9,30.15,NW,315,1.0,6.0,-999,0.00,,,-99.99,WeatherLink 5.5,2013-01-04 17:20:00,
2013-01-04 12:25:00,70.0,-99.9,30.15,NW,315,0.0,5.0,-999,0.00,,,-99.99,WeatherLink 5.5,2013-01-04 17:25:00,
2013-01-04 12:30:00,71.3,-99.9,30.15,WNW,292,1.0,5.0,-999,0.00,,,-99.99,WeatherLink 5.5,2013-01-04 17:30:00,
2013-01-04 12:35:00,73.9,-99.9,30.14,WNW,292,1.0,5.0,-999,0.00,,,-99.99,WeatherLink 5.5,2013-01-04 17:35:00,
2013-01-04 12:40:00,73.8,-99.9,30.14,West,270,1.0,6.0,-999,0.00,,,-99.99,WeatherLink 5.5,2013-01-04 17:40:00,
2013-01-04 12:45:00,72.6,-99.9,30.14,West,270,0.0,5.0,-999,0.00,,,-99.99,WeatherLink 5.5,2013-01-04 17:45:00,
2013-01-04 12:50:00,72.8,-99.9,30.13,West,270,0.0,5.0,-999,0.00,,,-99.99,WeatherLink 5.5,2013-01-04 17:50:00,
2013-01-04 12:55:00,77.9,-99.9,30.13,West,270,1.0,5.0,-999,0.00,,,-99.99,WeatherLink 5.5,2013-01-04 17:55:00,
2013-01-04 13:00:00,77.9,-99.9,30.13,West,270,1.0,6.0,-999,0.00,,,-99.99,WeatherLink 5.5,2013-01-04 18:00:00,
2013-01-04 13:05:00,77.6,-99.9,30.12,West,270,0.0,4.0,-999,0.00,,,-99.99,WeatherLink 5.5,2013-01-04 18:05:00,
2013-01-04 13:10:00,77.3,69.5,30.12,West,270,0.0,4.0,77,0.00,,,-99.99,WeatherLink 5.5,2013-01-04 18:10:00,
2013-01-04 13:15:00,77.3,-99.9,30.12,West,270,0.0,4.0,-999,0.00,,,-99.99,WeatherLink 5.5,2013-01-04 18:15:00,
2013-01-04 13:20:00,77.5,-99.9,30.12,West,270,0.0,1.0,-999,0.00,,,-99.99,WeatherLink 5.5,2013-01-04 18:20:00,
2013-01-04 13:25:00,77.3,-99.9,30.12,West,270,0.0,5.0,-999,0.00,,,-99.99,WeatherLink 5.5,2013-01-04 18:25:00,
2013-01-04 13:30:00,77.6,-99.9,30.12,West,270,0.0,5.0,-999,0.00,,,-99.99,WeatherLink 5.5,2013-01-04 18:30:00,
2013-01-04 13:35:00,77.1,-99.9,30.11,WSW,247,1.0,6.0,-999,0.00,,,-99.99,WeatherLink 5.5,2013-01-04 18:35:00,
2013-01-04 13:40:00,76.7,68.9,30.11,WSW,247,0.0,1.0,77,0.00,,,-99.99,WeatherLink 5.5,2013-01-04 18:40:00,
2013-01-04 13:45:00,76.7,-99.9,30.11,WSW,247,0.0,1.0,-999,0.00,,,-99.99,WeatherLink 5.5,2013-01-04 18:45:00,
2013-01-04 13:50:00,78.1,-99.9,30.11,North,-999,0.0,0.0,-999,0.00,,,-99.99,WeatherLink 5.5,2013-01-04 18:50:00,
2013-01-04 13:55:00,77.9,-99.9,30.11,West,270,0.0,6.0,-999,0.00,,,-99.99,WeatherLink 5.5,2013-01-04 18:55:00,
2013-01-04 14:00:00,78.1,70.3,30.11,West,270,2.0,6.0,77,0.00,,,-99.99,WeatherLink 5.5,2013-01-04 19:00:00,
2013-01-04 14:05:00,78.0,-99.9,30.11,West,270,0.0,1.0,-999,0.00,,,-99.99,WeatherLink 5.5,2013-01-04 19:05:00,
2013-01-04 14:10:00,78.0,70.2,30.11,West,270,1.0,5.0,77,0.00,,,-99.99,WeatherLink 5.5,2013-01-04 19:10:00,
2013-01-04 14:15:00,78.0,-99.9,30.10,West,270,0.0,5.0,-999,0.00,,,-99.99,WeatherLink 5.5,2013-01-04 19:15:00,
2013-01-04 14:20:00,78.1,-99.9,30.10,West,270,0.0,1.0,-999,0.00,,,-99.99,WeatherLink 5.5,2013-01-04 19:20:00,
2013-01-04 14:25:00,78.4,-99.9,30.10,West,270,0.0,1.0,-999,0.00,,,-99.99,WeatherLink 5.5,2013-01-04 19:25:00,
2013-01-04 14:30:00,78.2,-99.9,30.10,West,270,0.0,1.0,-999,0.00,,,-99.99,WeatherLink 5.5,2013-01-04 19:30:00,
2013-01-04 14:35:00,77.4,-99.9,30.10,North,-999,0.0,0.0,-999,0.00,,,-99.99,WeatherLink 5.5,2013-01-04 19:35:00,
2013-01-04 14:40:00,77.0,-99.9,30.10,West,270,0.0,4.0,-999,0.00,,,-99.99,WeatherLink 5.5,2013-01-04 19:40:00,
2013-01-04 14:45:00,76.9,36.3,30.10,West,270,0.0,5.0,23,0.00,,,-99.99,WeatherLink 5.5,2013-01-04 19:45:00,
2013-01-04 14:50:00,75.8,35.3,30.10,West,270,1.0,5.0,23,0.00,,,-99.99,WeatherLink 5.5,2013-01-04 19:50:00,
2013-01-04 14:55:00,75.2,34.8,30.10,West,270,0.0,5.0,23,0.00,,,-99.99,WeatherLink 5.5,2013-01-04 19:55:00,
2013-01-04 15:00:00,76.2,36.8,30.10,NW,315,2.0,7.0,24,0.00,,,-99.99,WeatherLink 5.5,2013-01-04 20:00:00,
2013-01-04 15:05:00,74.2,35.1,30.10,NNE,22,3.0,7.0,24,0.00,,,-99.99,WeatherLink 5.5,2013-01-04 20:05:00,
2013-01-04 15:10:00,77.0,37.4,30.10,NE,45,0.0,4.0,24,0.00,,,-99.99,WeatherLink 5.5,2013-01-04 20:10:00,
2013-01-04 15:15:00,77.1,37.5,30.10,NE,45,1.0,6.0,24,0.00,,,-99.99,WeatherLink 5.5,2013-01-04 20:15:00,
2013-01-04 15:20:00,77.0,37.4,30.10,NE,45,1.0,5.0,24,0.00,,,-99.99,WeatherLink 5.5,2013-01-04 20:20:00,
2013-01-04 15:25:00,76.8,37.3,30.10,NE,45,1.0,4.0,24,0.00,,,-99.99,WeatherLink 5.5,2013-01-04 20:25:00,
2013-01-04 15:30:00,76.8,37.3,30.11,NE,45,1.0,5.0,24,0.00,,,-99.99,WeatherLink 5.5,2013-01-04 20:30:00,
2013-01-04 15:35:00,76.7,37.2,30.11,NE,45,2.0,6.0,24,0.00,,,-99.99,WeatherLink 5.5,2013-01-04 20:35:00,
2013-01-04 15:40:00,76.6,37.1,30.11,NE,45,2.0,6.0,24,0.00,,,-99.99,WeatherLink 5.5,2013-01-04 20:40:00,
2013-01-04 15:45:00,76.5,37.0,30.11,NE,45,2.0,6.0,24,0.00,,,-99.99,WeatherLink 5.5,2013-01-04 20:45:00,
2013-01-04 15:50:00,76.4,36.9,30.11,NE,45,1.0,6.0,24,0.00,,,-99.99,WeatherLink 5.5,2013-01-04 20:50:00,
2013-01-04 15:55:00,76.5,37.0,30.11,NE,45,2.0,7.0,24,0.00,,,-99.99,WeatherLink 5.5,2013-01-04 20:55:00,
2013-01-04 16:00:00,76.4,36.9,30.11,NE,45,1.0,6.0,24,0.00,,,-99.99,WeatherLink 5.5,2013-01-04 21:00:00,
2013-01-04 16:05:00,76.4,36.9,30.11,NE,45,2.0,6.0,24,0.00,,,-99.99,WeatherLink 5.5,2013-01-04 21:05:00,
2013-01-04 16:10:00,76.3,36.8,30.11,NE,45,0.0,5.0,24,0.00,,,-99.99,WeatherLink 5.5,2013-01-04 21:10:00,
2013-01-04 16:15:00,76.1,36.7,30.11,NE,45,1.0,6.0,24,0.00,,,-99.99,WeatherLink 5.5,2013-01-04 21:15:00,
2013-01-04 16:20:00,76.0,37.6,30.12,NE,45,1.0,5.0,25,0.00,,,-99.99,WeatherLink 5.5,2013-01-04 21:20:00,
2013-01-04 16:25:00,76.1,37.7,30.12,NE,45,1.0,7.0,25,0.00,,,-99.99,WeatherLink 5.5,2013-01-04 21:25:00,
2013-01-04 16:30:00,76.2,36.8,30.12,NE,45,3.0,8.0,24,0.00,,,-99.99,WeatherLink 5.5,2013-01-04 21:30:00,
2013-01-04 16:35:00,76.0,36.6,30.12,NE,45,2.0,8.0,24,0.00,,,-99.99,WeatherLink 5.5,2013-01-04 21:35:00,
2013-01-04 16:40:00,75.7,37.4,30.12,NE,45,2.0,7.0,25,0.00,,,-99.99,WeatherLink 5.5,2013-01-04 21:40:00,
2013-01-04 16:45:00,75.5,37.2,30.13,NE,45,2.0,7.0,25,0.00,,,-99.99,WeatherLink 5.5,2013-01-04 21:45:00,
2013-01-04 16:50:00,75.3,37.0,30.12,NE,45,1.0,5.0,25,0.00,,,-99.99,WeatherLink 5.5,2013-01-04 21:50:00,
2013-01-04 16:55:00,75.2,36.9,30.12,NE,45,0.0,5.0,25,0.00,,,-99.99,WeatherLink 5.5,2013-01-04 21:55:00,
2013-01-04 17:00:00,71.2,33.6,30.12,NE,45,2.0,7.0,25,0.00,,,-99.99,WeatherLink 5.5,2013-01-04 22:00:00,
2013-01-04 17:05:00,58.0,22.3,30.12,NE,45,2.0,7.0,25,0.00,,,-99.99,WeatherLink 5.5,2013-01-04 22:05:00,
2013-01-04 17:10:00,61.0,24.9,30.13,NE,45,1.0,6.0,25,0.00,,,-99.99,WeatherLink 5.5,2013-01-04 22:10:00,
2013-01-04 17:15:00,72.3,34.5,30.13,NE,45,3.0,8.0,25,0.00,,,-99.99,WeatherLink 5.5,2013-01-04 22:15:00,
2013-01-04 17:20:00,65.0,28.3,30.13,NE,45,3.0,8.0,25,0.00,,,-99.99,WeatherLink 5.5,2013-01-04 22:20:00,
2013-01-04 17:25:00,55.2,19.9,30.14,NE,45,2.0,8.0,25,0.00,,,-99.99,WeatherLink 5.5,2013-01-04 22:25:00,
2013-01-04 17:30:00,66.2,29.3,30.14,NE,45,1.0,6.0,25,0.00,,,-99.99,WeatherLink 5.5,2013-01-04 22:30:00,
2013-01-04 17:35:00,67.0,30.0,30.14,NE,45,1.0,5.0,25,0.00,,,-99.99,WeatherLink 5.5,2013-01-04 22:35:00,
2013-01-04 17:40:00,66.8,29.8,30.14,NE,45,1.0,8.0,25,0.00,,,-99.99,WeatherLink 5.5,2013-01-04 22:40:00,
2013-01-04 17:45:00,66.7,29.7,30.14,NE,45,1.0,7.0,25,0.00,,,-99.99,WeatherLink 5.5,2013-01-04 22:45:00,
2013-01-04 17:50:00,66.5,29.6,30.14,NE,45,3.0,8.0,25,0.00,,,-99.99,WeatherLink 5.5,2013-01-04 22:50:00,
2013-01-04 17:55:00,66.3,29.4,30.14,NNE,22,0.0,6.0,25,0.00,,,-99.99,WeatherLink 5.5,2013-01-04 22:55:00,
2013-01-04 18:00:00,66.1,29.2,30.15,NNE,22,2.0,8.0,25,0.00,,,-99.99,WeatherLink 5.5,2013-01-04 23:00:00,
2013-01-04 18:05:00,65.7,28.9,30.15,NNE,22,1.0,7.0,25,0.00,,,-99.99,WeatherLink 5.5,2013-01-04 23:05:00,
2013-01-04 18:10:00,65.5,28.7,30.15,NNE,22,2.0,7.0,25,0.00,,,-99.99,WeatherLink 5.5,2013-01-04 23:10:00,
2013-01-04 18:15:00,65.4,28.6,30.15,NNE,22,1.0,6.0,25,0.00,,,-99.99,WeatherLink 5.5,2013-01-04 23:15:00,
2013-01-04 18:20:00,65.3,27.5,30.15,NNE,22,2.0,8.0,24,0.00,,,-99.99,WeatherLink 5.5,2013-01-04 23:20:00,
2013-01-04 18:25:00,65.1,27.4,30.16,NNE,22,1.0,7.0,24,0.00,,,-99.99,WeatherLink 5.5,2013-01-04 23:25:00,
2013-01-04 18:30:00,65.0,27.3,30.16,NNE,22,1.0,8.0,24,0.00,,,-99.99,WeatherLink 5.5,2013-01-04 23:30:00,
2013-01-04 18:35:00,64.9,27.2,30.17,NNE,22,2.0,7.0,24,0.00,,,-99.99,WeatherLink 5.5,2013-01-04 23:35:00,
2013-01-04 18:40:00,64.8,27.1,30.17,NNE,22,1.0,6.0,24,0.00,,,-99.99,WeatherLink 5.5,2013-01-04 23:40:00,
2013-01-04 18:45:00,64.8,27.1,30.17,NNE,22,0.0,5.0,24,0.00,,,-99.99,WeatherLink 5.5,2013-01-04 23:45:00,
2013-01-04 18:50:00,65.0,27.3,30.17,NNE,22,2.0,8.0,24,0.00,,,-99.99,WeatherLink 5.5,2013-01-04 23:50:00,
2013-01-04 18:55:00,65.7,26.9,30.17,NNE,22,2.0,8.0,23,0.00,,,-99.99,WeatherLink 5.5,2013-01-04 23:55:00,
2013-01-04 19:00:00,65.5,26.7,30.17,NNE,22,0.0,4.0,23,0.00,,,-99.99,WeatherLink 5.5,2013-01-05 00:00:00,
2013-01-04 19:05:00,65.4,26.6,30.17,NNE,22,1.0,6.0,23,0.00,,,-99.99,WeatherLink 5.5,2013-01-05 00:05:00,
2013-01-04 19:10:00,65.4,26.6,30.17,NNE,22,1.0,6.0,23,0.00,,,-99.99,WeatherLink 5.5,2013-01-05 00:10:00,
2013-01-04 19:15:00,65.3,26.5,30.18,NNE,22,1.0,7.0,23,0.00,,,-99.99,WeatherLink 5.5,2013-01-05 00:15:00,
2013-01-04 19:20:00,65.2,26.4,30.18,NNE,22,1.0,6.0,23,0.00,,,-99.99,WeatherLink 5.5,2013-01-05 00:20:00,
2013-01-04 19:25:00,65.1,26.3,30.18,NNE,22,1.0,5.0,23,0.00,,,-99.99,WeatherLink 5.5,2013-01-05 00:25:00,
2013-01-04 19:30:00,65.0,26.3,30.18,NNE,22,0.0,3.0,23,0.00,,,-99.99,WeatherLink 5.5,2013-01-05 00:30:00,
2013-01-04 19:35:00,64.9,26.2,30.19,NNE,22,0.0,4.0,23,0.00,,,-99.99,WeatherLink 5.5,2013-01-05 00:35:00,
2013-01-04 19:40:00,64.6,25.9,30.19,NNE,22,0.0,3.0,23,0.00,,,-99.99,WeatherLink 5.5,2013-01-05 00:40:00,
2013-01-04 19:45:00,64.2,25.6,30.19,NNE,22,0.0,4.0,23,0.00,,,-99.99,WeatherLink 5.5,2013-01-05 00:45:00,
2013-01-04 19:50:00,63.8,25.3,30.19,NNE,22,0.0,1.0,23,0.00,,,-99.99,WeatherLink 5.5,2013-01-05 00:50:00,
2013-01-04 19:55:00,63.7,25.2,30.19,North,-999,0.0,1.0,23,0.00,,,-99.99,WeatherLink 5.5,2013-01-05 00:55:00,
2013-01-04 20:00:00,63.4,24.9,30.19,NNE,22,0.0,4.0,23,0.00,,,-99.99,WeatherLink 5.5,2013-01-05 01:00:00,
2013-01-04 20:05:00,63.4,24.9,30.20,NNE,22,0.0,4.0,23,0.00,,,-99.99,WeatherLink 5.5,2013-01-05 01:05:00,
2013-01-04 20:10:00,63.2,24.7,30.20,NNE,22,0.0,3.0,23,0.00,,,-99.99,WeatherLink 5.5,2013-01-05 01:10:00,
2013-01-04 20:15:00,63.0,24.6,30.20,NNE,22,0.0,4.0,23,0.00,,,-99.99,WeatherLink 5.5,2013-01-05 01:15:00,
2013-01-04 20:20:00,62.9,24.5,30.20,NNE,22,0.0,2.0,23,0.00,,,-99.99,WeatherLink 5.5,2013-01-05 01:20:00,
2013-01-04 20:25:00,62.7,24.3,30.21,NNE,22,0.0,4.0,23,0.00,,,-99.99,WeatherLink 5.5,2013-01-05 01:25:00,
2013-01-04 20:30:00,62.6,24.2,30.21,NNE,22,0.0,1.0,23,0.00,,,-99.99,WeatherLink 5.5,2013-01-05 01:30:00,
2013-01-04 20:35:00,62.4,24.1,30.21,NNE,22,0.0,3.0,23,0.00,,,-99.99,WeatherLink 5.5,2013-01-05 01:35:00,
2013-01-04 20:40:00,62.3,24.0,30.21,NNE,22,0.0,1.0,23,0.00,,,-99.99,WeatherLink 5.5,2013-01-05 01:40:00,
2013-01-04 20:45:00,65.0,26.3,30.21,NNE,22,0.0,3.0,23,0.00,,,-99.99,WeatherLink 5.5,2013-01-05 01:45:00,
2013-01-04 20:57:00,71.0,31.3,30.21,NNE,22,0.0,3.0,23,0.00,,,-99.99,WeatherLink 5.5,2013-01-05 01:57:00,
2013-01-04 21:05:00,70.8,31.1,30.21,NNE,22,1.0,6.0,23,0.00,,,-99.99,WeatherLink 5.5,2013-01-05 02:05:00,
2013-01-04 21:10:00,70.7,31.1,30.21,NNE,22,2.0,7.0,23,0.00,,,-99.99,WeatherLink 5.5,2013-01-05 02:10:00,
2013-01-04 21:20:00,70.5,30.9,30.21,NNE,22,1.0,5.0,23,0.00,,,-99.99,WeatherLink 5.5,2013-01-05 02:20:00,
2013-01-04 21:25:00,70.4,30.8,30.21,NNE,22,1.0,7.0,23,0.00,,,-99.99,WeatherLink 5.5,2013-01-05 02:25:00,
2013-01-04 21:35:00,70.2,30.6,30.21,North,0,2.0,8.0,23,0.00,,,-99.99,WeatherLink 5.5,2013-01-05 02:35:00,
2013-01-04 21:45:00,70.1,30.6,30.21,North,0,2.0,7.0,23,0.00,,,-99.99,WeatherLink 5.5,2013-01-05 02:45:00,
2013-01-04 21:50:00,70.1,30.6,30.21,North,0,2.0,8.0,23,0.00,,,-99.99,WeatherLink 5.5,2013-01-05 02:50:00,
2013-01-04 22:00:00,69.9,30.4,30.21,North,0,1.0,6.0,23,0.00,,,-99.99,WeatherLink 5.5,2013-01-05 03:00:00,
2013-01-04 22:10:00,69.8,30.3,30.21,North,0,2.0,8.0,23,0.00,,,-99.99,WeatherLink 5.5,2013-01-05 03:10:00,
2013-01-04 22:20:00,69.7,30.2,30.21,North,0,0.0,5.0,23,0.00,,,-99.99,WeatherLink 5.5,2013-01-05 03:20:00,
2013-01-04 22:30:00,69.6,30.1,30.21,North,0,1.0,5.0,23,0.00,,,-99.99,WeatherLink 5.5,2013-01-05 03:30:00,
2013-01-04 22:40:00,69.4,30.0,30.21,North,0,1.0,5.0,23,0.00,,,-99.99,WeatherLink 5.5,2013-01-05 03:40:00,
2013-01-04 22:45:00,69.4,30.0,30.21,North,0,1.0,5.0,23,0.00,,,-99.99,WeatherLink 5.5,2013-01-05 03:45:00,
2013-01-04 22:55:00,69.3,29.9,30.21,North,0,0.0,5.0,23,0.00,,,-99.99,WeatherLink 5.5,2013-01-05 03:55:00,
2013-01-04 23:05:00,69.1,29.7,30.21,North,0,0.0,4.0,23,0.00,,,-99.99,WeatherLink 5.5,2013-01-05 04:05:00,
2013-01-04 23:15:00,69.0,29.6,30.21,North,0,1.0,8.0,23,0.00,,,-99.99,WeatherLink 5.5,2013-01-05 04:15:00,
2013-01-04 23:20:00,68.9,29.5,30.21,North,0,2.0,7.0,23,0.00,,,-99.99,WeatherLink 5.5,2013-01-05 04:20:00,
2013-01-04 23:30:00,68.7,29.4,30.21,North,0,0.0,5.0,23,0.00,,,-99.99,WeatherLink 5.5,2013-01-05 04:30:00,
2013-01-04 23:35:00,68.6,29.3,30.21,North,0,0.0,2.0,23,0.00,,,-99.99,WeatherLink 5.5,2013-01-05 04:35:00,
2013-01-04 23:45:00,68.5,29.2,30.20,North,-999,0.0,0.0,23,0.00,,,-99.99,WeatherLink 5.5,2013-01-05 04:45:00,
2013-01-04 23:50:00,68.5,30.3,30.20,North,0,0.0,2.0,24,0.00,,,-99.99,WeatherLink 5.5,2013-01-05 04:50:00,